Regional Weather Roundup
Issued by NWS Sterling, VA

Home | Current Version | Previous Version | Graphics & Text | Print | Product List | Glossary On
Versions: 1 2 3 4 5 6 7 8 9 10 11 12 13 14 15 16 17 18 19 20 21 22 23 24 25 26 27 28 29 30 31 32 33 34 35 36 37 38 39 40 41 42 43 44 45 46 47 48 49 50
000
ASUS41 KLWX 300910
RWRLWX

REGIONAL WEATHER ROUNDUP
NATIONAL WEATHER SERVICE BALTIMORE MD/WASHINGTON DC
500 AM EDT SAT AUG 30 2014

Note: "FAIR" indicates few or no clouds below 12,000 feet
with no significant weather and/or obstructions to visibility.
 TC=TEMPERATURE CELSIUS

 * =Non NWS site. Station does not report precipitation (e.g. rain,
    snow, etc.), thunder, or fog.

DCZ001-MDZ009-015-VAZ040>042-051-053>054-301000-
WASHINGTON METRO

CITY           SKY/WX    TMP DP  RH WIND       PRES   REMARKS
WASHINGTON NAT CLOUDY    71  61  70 S7        30.22R
DULLES         MOCLDY    66  62  87 S3        30.21S
ANDREWS AFB    CLOUDY    65  62  89 SE5       30.21S
QUANTICO       CLOUDY    72  63  73 S10       30.22R
COLLEGE PARK*  CLOUDY    68  63  83 CALM      30.21S
LEESBURG*      CLOUDY    68  63  83 S5        30.21F
MANASSAS*      CLOUDY    66  66 100 CALM      30.21S
GAITHERSBURG*  CLOUDY    64  61  88 E3        30.25S

$$

MDZ006>007-011-014-301000-
BALTIMORE METRO

CITY           SKY/WX    TMP DP  RH WIND       PRES   REMARKS
BWI AIRPORT    MOCLDY    64  61  90 CALM      30.21F
MD SCIENCE CTR   N/A     71  61  70 MISG      30.22S
MARTIN STATE   PTCLDY    68  64  88 SE6       30.23S
ANNAPOLIS      MOCLDY    71  64  78 SE10      30.21S
FORT MEADE*    CLOUDY    59  57  94 CALM      30.24S

$$

MDZ012-015-019>023-301000-
MARYLAND EASTERN SHORE

CITY           SKY/WX    TMP DP  RH WIND       PRES   REMARKS
OCEAN CITY     CLOUDY    60  58  92 CALM      30.23R
SALISBURY      MOCLDY    60  56  86 CALM      30.23R
BAY BRIDGE AP*   N/A     66  63  88 SE3       30.22S
CAMBRIDGE*     CLEAR     61  59  94 E3        30.21S
EASTON*        CLEAR     62  62 100 CALM      30.26S

$$

MDZ017>025-301000-
SOUTHERN MARYLAND

CITY           SKY/WX    TMP DP  RH WIND       PRES   REMARKS
PATUXENT RIVER CLOUDY    68  62  81 S3        30.21S
ST INIGOES     CLOUDY    65  61  87 CALM      30.20S
LEONARDTOWN*   MOCLDY    66  59  77 CALM      30.22F

$$

MDZ003>005-301000-
NORTH CENTRAL MARYLAND

CITY           SKY/WX    TMP DP  RH WIND       PRES   REMARKS
FREDERICK*     CLOUDY    64  64 100 CALM      30.23F
HAGERSTOWN APT CLOUDY    66  58  75 CALM      30.20S
WESTMINSTER*   CLOUDY    64  61  88 SE6       30.22S

$$

MDZ501>502-301000-
WESTERN MARYLAND

CITY           SKY/WX    TMP DP  RH WIND       PRES   REMARKS
OAKLAND*       CLEAR     59 N/A N/A S8        30.22S
CUMBERLAND*    CLEAR     61  55  82 CALM      30.22S

$$

VAZ025>031-301000-
SHENANDOAH VALLEY

CITY           SKY/WX    TMP DP  RH WIND       PRES   REMARKS
WINCHESTER*    CLEAR     64  57  77 S3        30.19S
STAUNTON*      CLOUDY    67  61  81 CALM      30.23R

$$

WVZ021-048>050-054>055-301000-
EASTERN WEST VIRGINIA PANHANDLE

CITY           SKY/WX    TMP DP  RH WIND       PRES   REMARKS
MARTINSBURG    PTCLDY    63  56  78 CALM      30.19F
PETERSBURG*    NOT AVBL

$$

VAZ036>039-050-301000-
CENTRAL FOOTHILLS

CITY           SKY/WX    TMP DP  RH WIND       PRES   REMARKS
CHARLOTTESVILL CLOUDY    68  63  84 NW3       30.21R
ORANGE*        CLOUDY    68  61  77 CALM      30.23R

$$

VAZ055>057-301000-
NORTH AND CENTRAL PIEDMONT

CITY           SKY/WX    TMP DP  RH WIND       PRES   REMARKS
FREDERICKSBRG* CLOUDY    66  62  89 CALM      30.20S
STAFFORD*      CLOUDY    63  63 100 CALM      30.25R

$$

NCZ024-NYZ072-PAZ021-071-VAZ022-071-301000-
OTHER REGIONAL OBSERVATIONS

CITY           SKY/WX    TMP DP  RH WIND       PRES   REMARKS
NEW YORK CITY  CLOUDY    68  54  60 VRB3      30.28S
PHILADELPHIA   PTCLDY    62  58  86 CALM      30.25S
PITTSBURGH     MOCLDY    62  58  86 E5        30.10S
ROANOKE        PTCLDY    70  68  93 SE5       30.23R
RICHMOND       CLOUDY    70  63  78 CALM      30.21R
RALEIGH        CLOUDY    72  68  87 SE5       30.19S

$$

ANZ530>537-301000-
MARINE OBSERVATIONS

STATION/POSITION TIME  TEMP    WIND        PRES
                       AIR SEA DIR/SP/G
                 (UTC) (F)     (DEG/KT/KT) (MB)
THOMAS PT LIGHT  0900   70 77  140/  9/ 10 1024.0F
BALT KEY BRIDGE  0900   76     130/  9/ 10 1022.8F
COVE POINT       0900   71     140/  9/ 10 1022.8F
LEWISETTA        0900   72 78  140/  4/  4 1022.6R
SOLOMONS ISLAND  0900      78                N/A
PINEY POINT      0900          170/  9/ 11   N/A

$$




USA.gov is the U.S. government's official web portal to all federal, state and local government web resources and services.